Weather History for KFFT - February, 2013

Change the Weather History Date:

Tuesday, February 26, 2013

  Actual Average Record
Temperature  
Mean Temperature 46 °F 39 °F  
Max Temperature 53 °F 49 °F 75 °F (2000)
Min Temperature 39 °F 29 °F -3 °F (1967)
Degree Days  
Heating Degree Days 19 26  
Month to date heating degree days 776 749  
Since 1 July heating degree days 3479 3587  
Cooling Degree Days 0 0  
Month to date cooling degree days 0 0  
Year to date cooling degree days 0 0  
Moisture  
Dew Point 41 °F    
Average Humidity 70    
Maximum Humidity 93    
Minimum Humidity 46    
Precipitation  
Precipitation 0.58 in 0.13 in 1.51 in (1930)
Month to date precipitation 1.57 3.04  
Year to date precipitation 6.57 6.30  
Sea Level Pressure  
Sea Level Pressure 29.49 in    
Wind  
Wind Speed 11 mph (South)    
Max Wind Speed 28 mph    
Max Gust Speed 39 mph    
Visibility 8 miles    
Events Rain    
T = Trace of Precipitation, MM = Missing Value Source: NWS Daily Summary

Daily Weather History Graph

Daily Weather History Graph

Search for Another Location

Airport or City:

Trip Planner

Search our weather history database for the weather conditions in past years. The results will help you decide how hot, cold, wet, or windy it might be!

Date:

Astronomy

Feb. 26, 2013 Rise Set
Actual Time 7:15 AM EST 6:30 PM EST
Civil Twilight 6:48 AM EST 6:56 PM EST
Nautical Twilight 6:18 AM EST 7:27 PM EST
Astronomical Twilight 5:47 AM EST 7:57 PM EST
Moon 7:44 PM EST (2/26) 7:18 AM EST (2/26)
Length of Visible Light 12h 07m
Length of Day
11h 14m
Full, 99% of the Moon is Illuminated
Feb 26
Full
Mar 4
Last Quarter
Mar 11
New
Mar 19
First Quarter
Mar 27
Full

Hourly Weather History & Observations

Time (EST) Temp. Windchill Dew Point Humidity Pressure Visibility Wind Dir Wind Speed Gust Speed Precip Events Conditions
12:53 AM 41.0 °F 33.1 °F 23.0 °F 49% 29.79 in 10.0 mi ENE 15.0 mph 23.0 mph N/A   Overcast
1:53 AM 41.0 °F 33.1 °F 24.1 °F 51% 29.75 in 10.0 mi East 15.0 mph - N/A   Overcast
2:53 AM 41.0 °F 33.5 °F 25.0 °F 53% 29.70 in 10.0 mi ENE 13.8 mph 20.7 mph N/A   Overcast
3:53 AM 39.9 °F 31.8 °F 30.0 °F 68% 29.64 in 10.0 mi East 15.0 mph 21.9 mph 0.02 in   Overcast
4:53 AM 41.0 °F 34.7 °F 30.9 °F 67% 29.64 in 10.0 mi East 10.4 mph - N/A   Overcast
5:53 AM 39.9 °F 32.5 °F 34.0 °F 79% 29.59 in 10.0 mi ENE 12.7 mph - 0.03 in Rain Light Rain
6:53 AM 39.9 °F 32.1 °F 35.1 °F 83% 29.54 in 10.0 mi ENE 13.8 mph 19.6 mph 0.05 in Rain Light Rain
7:53 AM 41.0 °F 33.1 °F 36.0 °F 82% 29.50 in 8.0 mi ENE 15.0 mph - 0.02 in Rain Light Rain
8:53 AM 42.1 °F 36.6 °F 37.9 °F 85% 29.50 in 10.0 mi East 9.2 mph - 0.01 in   Overcast
9:53 AM 44.1 °F 37.7 °F 41.0 °F 89% 29.47 in 10.0 mi East 12.7 mph - 0.01 in   Overcast
10:53 AM 46.9 °F - 44.1 °F 90% 29.45 in 4.0 mi East 3.5 mph - 0.02 in Rain Light Rain
11:03 AM 46.4 °F 44.3 °F 44.6 °F 93% 29.45 in 2.5 mi East 4.6 mph - 0.01 in Rain Light Rain
11:15 AM 46.4 °F 44.3 °F 44.6 °F 93% 29.44 in 4.0 mi East 4.6 mph - 0.02 in Rain Light Rain
11:53 AM 48.9 °F - 46.9 °F 93% 29.42 in 8.0 mi East 5.8 mph - 0.05 in Rain Light Rain
12:53 PM 50.0 °F - 48.9 °F 96% 29.40 in 8.0 mi Calm Calm - 0.00 in   Overcast
1:04 PM 50.0 °F - 50.0 °F 100% 29.40 in 6.0 mi ESE 4.6 mph - N/A   Overcast
1:53 PM 52.0 °F - 50.0 °F 93% 29.38 in 8.0 mi SE 5.8 mph - 0.00 in Rain Light Rain
2:05 PM 51.8 °F - 50.0 °F 94% 29.37 in 8.0 mi SSE 6.9 mph - 0.01 in Rain Light Rain
2:12 PM 53.6 °F - 50.0 °F 88% 29.37 in 6.0 mi SSE 8.1 mph - 0.01 in Rain Light Rain
2:43 PM 51.8 °F - 50.0 °F 94% 29.37 in 1.8 mi SW 12.7 mph 20.7 mph 0.06 in Rain Heavy Rain
2:53 PM 51.1 °F - 48.9 °F 92% 29.38 in 1.8 mi South 11.5 mph 21.9 mph 0.13 in Rain Rain
2:56 PM 51.8 °F - 48.2 °F 88% 29.38 in 4.0 mi South 12.7 mph - 0.00 in Rain Rain
3:13 PM 51.8 °F - 48.2 °F 88% 29.37 in 6.0 mi SSW 12.7 mph 19.6 mph 0.03 in Rain Light Rain
3:24 PM 51.8 °F - 48.2 °F 88% 29.37 in 5.0 mi WSW 9.2 mph - 0.05 in Rain Light Rain
3:39 PM 51.8 °F - 48.2 °F 88% 29.38 in 10.0 mi SSW 17.3 mph 24.2 mph 0.06 in Rain Light Rain
3:53 PM 52.0 °F - 48.0 °F 86% 29.39 in 10.0 mi SW 17.3 mph 23.0 mph 0.06 in   Mostly Cloudy
4:38 PM 46.4 °F 39.5 °F 42.8 °F 87% 29.43 in 2.0 mi WSW 17.3 mph 39.1 mph 0.05 in Rain Rain
4:53 PM 46.0 °F 39.9 °F 43.0 °F 89% 29.44 in 4.0 mi WSW 13.8 mph 21.9 mph 0.08 in Rain Light Rain
5:53 PM 46.0 °F 40.6 °F 43.0 °F 89% 29.46 in 10.0 mi SW 11.5 mph - 0.03 in   Mostly Cloudy
6:53 PM 44.1 °F 39.0 °F 39.9 °F 85% 29.50 in 10.0 mi WSW 9.2 mph - 0.01 in   Overcast
7:46 PM 44.6 °F 39.2 °F 41.0 °F 87% 29.53 in 10.0 mi SW 10.4 mph - 0.00 in Rain Light Rain
7:53 PM 44.1 °F 35.7 °F 39.0 °F 82% 29.54 in 10.0 mi SW 20.7 mph 34.5 mph 0.00 in Rain Light Rain
8:19 PM 42.8 °F 37.0 °F 39.2 °F 87% 29.54 in 10.0 mi SW 10.4 mph 23.0 mph 0.01 in   Overcast
8:53 PM 42.1 °F 37.1 °F 39.0 °F 89% 29.55 in 10.0 mi SW 8.1 mph - 0.01 in   Overcast
9:53 PM 42.1 °F 37.7 °F 39.0 °F 89% 29.56 in 10.0 mi SSW 6.9 mph - N/A   Overcast
10:39 PM 42.8 °F 35.4 °F 39.2 °F 87% 29.57 in 9.0 mi SW 15.0 mph 24.2 mph 0.00 in Rain Light Rain
10:53 PM 39.9 °F 32.5 °F 37.0 °F 89% 29.58 in 7.0 mi WSW 12.7 mph 19.6 mph 0.02 in Rain Light Rain
11:12 PM 39.2 °F 32.5 °F 37.4 °F 93% 29.58 in 9.0 mi WSW 10.4 mph 18.4 mph 0.01 in Rain Light Rain
11:53 PM 39.0 °F 32.8 °F 37.0 °F 93% 29.58 in 10.0 mi SW 9.2 mph - 0.03 in Rain Light Rain